Location: Balaclava NSW 2575, Australia
(34.4510°S, 150.4953°E)
Time: 22:24:50
(UTC+10:00)

Vanguard 2 - All Passes

Search period start: 14 June 2021 00:00
Search period end: 24 June 2021 00:00
Orbit: 552 x 2937 km, 32.9° (Epoch: 13 June)

Date Brightness Start Highest point End Pass type
(mag) Time Alt. Az. Time Alt. Az. Time Alt. Az.
14 Jun - 04:50:32 10° N 04:56:06 21° NE 05:03:44 10° E visible
14 Jun - 06:55:21 10° NW 07:04:21 60° NNE 07:19:03 10° E daylight
14 Jun - 09:03:29 10° W 09:15:31 84° N 09:33:15 10° E daylight
14 Jun - 11:13:18 10° W 11:28:21 76° NNW 11:46:21 10° ENE daylight
14 Jun - 13:24:45 10° W 13:40:45 48° NNW 13:56:16 10° NE daylight
14 Jun - 15:41:12 10° W 15:51:11 18° NW 16:00:14 10° NNW daylight
15 Jun - 05:06:51 10° NNW 05:13:12 29° NE 05:22:39 10° E visible
15 Jun - 07:12:48 10° WNW 07:22:01 70° NNE 07:37:13 10° E daylight
15 Jun - 09:21:18 10° W 09:33:34 85° N 09:51:23 10° E daylight
15 Jun - 11:31:12 10° W 11:46:18 69° NNW 12:04:04 10° ENE daylight
15 Jun - 13:43:07 10° W 13:58:17 39° NW 14:13:00 10° NNE daylight
15 Jun - 16:03:49 10° WNW 16:08:26 12° NW 16:12:52 10° NNW daylight
16 Jun - 05:23:39 10° NNW 05:30:25 39° NE 05:41:09 10° E visible
16 Jun - 07:30:23 10° WNW 07:39:49 77° NNE 07:55:23 10° E daylight
16 Jun - 09:39:06 10° W 09:51:35 83° N 10:09:28 10° ENE daylight
16 Jun - 11:49:09 10° W 12:04:10 61° NNW 12:21:34 10° NE daylight
16 Jun - 14:01:49 10° W 14:15:46 31° NW 14:29:19 10° NNE daylight
17 Jun - 03:38:26 10° NNE 03:40:32 11° NE 03:42:53 10° ENE visible
17 Jun - 05:40:47 10° NW 05:47:48 49° NNE 05:59:26 10° E visible
17 Jun - 07:48:04 10° WNW 07:57:43 82° N 08:13:34 10° E daylight
17 Jun - 09:56:56 10° W 10:09:36 79° NNW 10:27:29 10° ENE daylight
17 Jun - 12:07:10 10° W 12:21:57 53° NNW 12:38:50 10° NE daylight
17 Jun - 14:21:05 10° W 14:33:11 23° NW 14:45:02 10° N daylight
18 Jun - 03:53:26 10° N 03:57:35 18° NE 04:03:04 10° E visible
18 Jun - 05:58:06 10° NW 06:05:20 60° NNE 06:17:37 10° E visible
18 Jun - 08:05:47 10° W 08:15:39 84° N 08:31:44 10° E daylight
18 Jun - 10:14:45 10° W 10:27:34 72° NNW 10:45:20 10° ENE daylight
18 Jun - 12:25:20 10° W 12:39:39 44° NNW 12:55:47 10° NNE daylight
18 Jun - 14:41:25 10° WNW 14:50:37 17° NW 14:59:40 10° NNW daylight
19 Jun - 04:09:46 10° NNW 04:14:44 26° NE 04:21:56 10° E visible
19 Jun - 06:15:35 10° WNW 06:23:00 70° NNE 06:35:46 10° E visible
19 Jun - 08:23:33 10° W 08:33:37 83° N 08:49:53 10° E daylight
19 Jun - 10:32:36 10° W 10:45:28 65° NNW 11:03:02 10° NE daylight
19 Jun - 12:43:43 10° W 12:57:18 36° NW 13:12:23 10° NNE daylight
19 Jun - 15:06:09 10° NW 15:08:06 10° NW 15:10:03 10° NW daylight
20 Jun - 04:26:37 10° NNW 04:32:00 36° NE 04:40:22 10° E visible
20 Jun - 06:33:11 10° WNW 06:40:46 77° NNE 06:53:54 10° E visible
20 Jun - 08:41:18 10° W 08:51:34 80° N 09:07:59 10° ENE daylight
20 Jun - 10:50:31 10° W 11:03:20 56° NNW 11:20:28 10° NE daylight
20 Jun - 13:02:31 10° W 13:14:55 28° NW 13:28:28 10° NNE daylight
21 Jun - 04:43:47 10° NW 04:49:25 47° NNE 04:58:35 10° E visible
21 Jun - 06:50:51 10° W 06:58:37 82° N 07:12:03 10° E daylight
21 Jun - 08:59:04 10° W 09:09:31 75° NNW 09:25:58 10° ENE daylight
21 Jun - 11:08:32 10° W 11:21:09 47° NNW 11:37:37 10° NE daylight
21 Jun - 13:22:01 10° W 13:32:31 20° NW 13:43:48 10° N daylight
22 Jun - 02:56:29 10° N 02:59:30 16° NE 03:03:13 10° ENE visible
22 Jun - 05:01:10 10° WNW 05:06:58 59° NNE 05:16:42 10° E visible
22 Jun - 07:08:33 10° W 07:16:30 83° N 07:30:12 10° E daylight
22 Jun - 09:16:51 10° W 09:27:25 67° NNW 09:43:47 10° ENE daylight
22 Jun - 11:26:44 10° W 11:38:56 39° NNW 11:54:26 10° NNE daylight
22 Jun - 13:43:03 10° WNW 13:50:10 14° NW 13:57:37 10° NNW daylight
23 Jun - 03:12:49 10° NNW 03:16:43 24° NE 03:22:03 10° E visible
23 Jun - 05:18:40 10° WNW 05:24:38 70° NNE 05:34:47 10° E visible
23 Jun - 07:26:16 10° W 07:34:23 81° N 07:48:19 10° E daylight
23 Jun - 09:34:41 10° W 09:45:17 59° NNW 10:01:23 10° NE daylight
23 Jun - 11:45:14 10° W 11:56:41 31° NNW 12:10:48 10° NNE daylight
